Hourly Data Report for March 12, 2010

HALIFAX STANFIELD INT'L A
NOVA SCOTIA

44°52'48.060" N
63°30'00.050" W
145.40 m
8202250
71395
YHZ

Download Data

Hourly Data (March 2010)
Hourly Data Report for March 12, 2010
TIME
LST
Temp Definition
°C
Dew Point Definition
°C
Rel Hum Definition
%
Precip. Amount Definition
mm

Wind Dir Definition
10's deg

Wind Spd Definition
km/h
Visibility Definition
km
Stn Press Definition
kPa
Hmdx Definition


Wind Chill Definition


Weather Definition


00:00 -2.1 -7.4 67   32 6 24.1 100.47   -4 Mainly Clear
01:00 -3.6 -7.5 74   27 7 24.1 100.50   -7 Mainly Clear
02:00 -3.8 -8.0 73   27 9 24.1 100.51   -8 Clear
03:00 -4.3 -7.3 80   29 9 24.1 100.50   -8 Clear
04:00 -4.2 -7.5 78   30 9 24.1 100.49   -8 Clear
05:00 -2.1 -7.1 69   32 7 24.1 100.52   -5 Clear
06:00 -3.4 -7.1 76   34 9 24.1 100.55   -7 Clear
07:00 -3.8 -6.7 80   31 9 24.1 100.58   -8 Clear
08:00 -2.2 -5.6 77   32 9 24.1 100.66   -6 Clear
09:00 -0.2 -3.3 80   33 11 24.1 100.72   -4 Clear
10:00 1.0 -5.4 62   35 7 24.1 100.71     Clear
11:00 3.1 -7.0 47   31 9 24.1 100.71     Clear
12:00 5.4 -8.1 37   32 17 24.1 100.67     Clear
13:00 5.3 -9.0 35   32 19 24.1 100.66     Clear
14:00 5.9 -9.6 32   31 17 24.1 100.62     Clear
15:00 6.3 -9.2 32   34 15 24.1 100.65     Clear
16:00 6.1 -9.0 33   34 20 24.1 100.70     Clear
17:00 4.8 -9.6 34   36 15 24.1 100.76     Clear
18:00 3.1 -9.6 39   36 7 24.1 100.84     Clear
19:00 1.3 -9.9 43   2 6 24.1 100.89     Clear
20:00 -0.3 -9.6 49   2 9 24.1 100.99   -3 Clear
21:00 -1.5 -10.8 49   3 9 24.1 101.06   -5 Clear
22:00 -2.9 -11.1 53   5 6 24.1 101.07   -5 Clear
23:00 -2.7 -10.4 55   36 6 24.1 101.10   -5 Clear

Notes on Data Quality.

Legend

  • E = Estimated
  • M = Missing
  • NA = Not Available*
  • [empty] = Indicates an unobserved value
Date modified: